Theta_e
302 304 306 308 308 308 305 303 303 303 306 307 307 308 307 306 304 301 301 300 300 303 302 308 310 310 313 316 315 312 315 315 315 315 316 317 321 322 322 324 335 341 344 345 346
302 304 307 308 309 308 304 304 307 308 306 306 308 307 307 304 301 308 310 312 311 309 310 305 312 312 314 315 317 315 317 315 313 315 316 317 319 320 325 330 335 344 344 345 346
303 303 307 308 309 309 308 308 309 309 307 307 307 309 306 303 302 313 314 314 312 310 311 310 311 314 313 315 316 317 317 317 313 313 315 317 317 319 321 332 334 336 347 345 345
306 302 309 309 309 310 310 310 310 309 308 307 307 308 304 302 303 312 313 313 313 312 311 312 310 315 314 314 315 317 317 315 314 313 314 316 315 317 318 323 339 330 336 346 346
307 304 308 309 309 310 310 311 310 310 309 308 306 306 304 305 307 307 306 304 308 312 310 312 311 314 315 315 314 317 317 316 315 314 315 315 317 317 317 317 317 318 319 337 346
308 306 306 310 310 311 311 311 310 310 309 308 305 305 303 307 309 309 309 310 308 307 309 311 312 312 314 314 315 315 316 317 316 316 315 316 316 316 317 317 317 317 327 335 342
309 307 306 310 311 311 313 313 311 310 309 309 306 307 305 309 310 310 310 310 311 309 308 310 311 312 312 314 314 315 317 317 318 317 317 316 317 317 316 316 317 318 328 339 344
310 308 307 310 311 312 313 313 313 311 310 309 307 306 308 308 309 311 311 311 311 310 309 306 310 311 312 312 314 316 317 319 316 318 317 315 317 317 316 316 317 318 325 343 345
311 309 309 310 313 314 314 314 313 311 310 309 307 307 308 309 311 311 312 312 311 308 308 307 307 312 312 314 314 318 315 316 318 317 318 318 317 317 316 316 317 317 324 343 347
310 309 310 311 313 314 314 314 314 311 310 310 309 308 310 311 312 311 313 312 309 308 306 307 311 313 313 314 313 314 317 316 315 318 317 318 317 317 316 316 317 317 325 342 347
310 310 310 312 313 314 315 314 312 311 310 311 311 310 311 312 313 312 313 311 310 311 309 308 312 314 315 313 313 316 319 316 316 316 318 317 317 317 318 316 317 318 324 341 346
309 311 311 313 314 315 314 314 314 312 312 312 311 311 312 312 314 313 312 311 311 312 310 311 313 310 313 312 314 318 321 318 316 315 318 318 317 317 318 317 317 319 333 342 345
306 311 312 313 314 315 314 314 313 311 312 312 312 311 313 312 315 314 313 311 311 312 310 312 312 312 314 313 313 316 321 321 319 315 316 317 317 317 316 317 319 320 327 339 343
304 311 312 313 314 314 314 314 313 311 314 313 312 314 314 314 317 314 314 312 313 312 312 312 310 311 315 315 313 317 319 321 321 318 318 316 317 317 318 320 324 322 333 341 344
304 310 312 312 311 313 312 313 312 312 315 313 314 314 314 315 316 315 313 314 314 314 313 313 315 314 316 316 314 317 319 320 321 321 317 317 317 317 317 321 322 325 331 339 343
304 309 312 311 310 309 312 313 312 313 315 315 314 315 316 316 316 314 314 314 315 316 315 314 315 315 316 317 317 316 318 318 317 318 317 317 317 318 320 320 321 323 328 335 341
304 310 313 311 310 310 313 313 315 317 313 315 314 315 317 318 317 315 315 314 315 317 317 316 316 317 316 318 319 319 320 322 319 319 317 317 317 320 319 320 322 325 328 334 336
304 312 311 310 309 313 313 313 315 314 314 314 314 316 320 317 316 317 316 317 314 314 317 318 318 316 316 318 318 318 320 320 319 319 318 319 318 319 319 319 321 323 326 333 337
305 313 312 309 311 314 312 313 314 313 313 315 315 316 318 318 317 318 317 317 316 316 319 319 319 315 315 316 318 319 320 318 321 320 318 319 321 321 323 323 325 327 331 333 336
305 314 310 308 311 312 313 311 313 312 313 315 314 314 315 319 317 317 319 316 317 317 316 318 320 315 315 316 316 318 319 321 323 321 317 321 321 321 324 326 331 333 331 332 336
304 312 308 307 308 308 312 309 309 310 313 315 315 314 316 315 316 317 321 320 319 319 317 317 320 317 316 317 319 318 320 320 323 325 322 322 321 325 332 332 331 327 328 334 336
305 310 306 305 307 306 308 307 307 310 309 313 314 314 315 314 314 315 315 317 313 318 321 318 320 319 317 316 317 318 319 320 321 325 324 325 326 329 331 330 330 330 328 326 333
305 305 305 303 307 307 306 306 307 308 308 310 311 312 313 313 313 314 314 314 314 316 321 321 322 318 316 316 315 318 318 320 321 323 324 321 324 325 329 330 329 330 329 327 325
304 306 305 304 304 305 305 306 306 306 306 306 309 308 308 310 311 313 315 313 311 312 317 320 322 321 319 317 317 317 319 320 321 323 323 322 322 325 329 330 330 330 330 325 324
302 304 303 305 305 304 304 305 306 306 305 305 309 307 307 310 311 314 311 311 309 315 315 318 323 322 321 321 318 317 319 320 320 319 321 321 323 330 329 329 328 329 329 326 327
303 303 303 303 303 304 304 306 305 306 304 306 306 305 306 309 310 311 311 309 309 312 312 314 321 321 321 321 321 317 318 319 319 321 322 323 325 328 325 325 324 322 328 331 331
302 300 302 303 304 304 305 305 305 305 305 305 305 305 307 308 307 305 305 306 308 310 310 314 321 323 323 320 319 319 318 317 319 320 320 323 324 327 323 322 319 318 316 316 323
Wind_Speed
24 23 20 20 20 21 20 18 17 16 16 14 12 14 17 19 17 14 16 8 7 9 12 10 11 14 11 8 9 8 8 16 21 20 12 9 13 11 15 23 10 9 7 5 14
28 23 21 20 19 21 20 17 17 18 17 13 11 13 15 18 15 7 5 8 7 9 7 12 6 8 9 9 10 11 14 21 6 13 9 13 18 13 9 15 19 11 12 11 17
31 24 21 19 17 18 19 18 17 18 16 15 12 13 14 15 5 4 3 9 6 7 9 9 9 6 11 8 15 13 16 16 12 16 15 14 10 14 12 13 18 19 13 14 18
33 25 21 18 16 17 17 18 18 19 16 16 13 13 13 8 2 2 3 6 6 8 9 7 11 7 6 13 14 11 18 13 18 8 7 9 4 6 14 12 10 10 7 16 22
34 27 20 19 15 15 16 18 19 20 16 15 14 12 9 4 2 4 8 11 11 14 8 6 12 11 9 5 15 15 14 20 18 14 7 9 12 8 15 17 12 7 4 14 21
35 30 19 19 15 14 16 18 20 21 15 15 13 10 6 2 2 4 7 9 10 12 10 8 9 12 7 7 11 4 14 21 25 23 14 10 12 8 21 18 18 12 8 12 22
37 31 18 19 16 13 15 18 21 21 14 12 11 7 8 4 2 8 12 13 12 12 10 11 13 12 9 5 11 15 9 12 25 20 10 7 15 25 23 16 10 5 5 7 20
39 30 18 19 15 13 15 19 22 19 13 11 10 9 7 6 10 11 10 11 9 9 13 12 11 14 6 4 4 13 13 13 17 23 13 11 28 21 24 18 24 14 6 9 19
39 28 17 18 15 13 15 19 22 18 9 12 8 9 6 6 12 13 10 8 8 8 11 5 10 6 9 8 11 10 15 22 12 25 15 20 13 14 19 17 27 18 11 12 16
38 26 16 17 15 13 15 18 18 14 6 10 6 5 3 8 18 11 8 6 3 0 3 6 6 4 10 12 16 16 20 14 24 14 30 22 20 9 5 16 25 20 15 16 18
36 24 15 16 15 13 14 17 11 4 16 10 11 10 17 15 13 5 7 4 4 6 5 14 7 7 16 17 13 12 14 16 18 13 20 31 18 21 11 10 17 19 19 20 20
34 22 16 15 15 13 13 11 10 10 11 15 13 19 16 8 6 4 5 2 3 5 7 6 7 11 15 16 18 14 8 13 13 25 14 18 22 17 25 10 15 15 18 22 23
34 20 14 15 15 15 17 10 11 4 4 9 8 9 7 6 6 6 6 3 6 5 7 10 3 3 16 15 21 18 9 9 3 18 15 13 16 17 21 23 17 12 19 23 29
33 21 13 14 11 17 12 14 10 3 3 3 3 4 3 6 5 6 5 4 4 4 5 7 4 8 14 15 19 15 17 10 7 9 11 15 6 17 17 16 14 17 17 22 25
34 20 10 11 14 15 16 13 6 2 2 15 4 5 11 6 8 4 3 4 8 5 4 3 10 14 6 16 18 11 5 8 7 3 6 12 4 8 12 17 19 17 19 21 23
36 17 6 13 18 19 11 12 3 2 4 6 7 12 12 2 3 3 3 6 5 6 11 12 5 4 4 9 16 7 12 5 2 3 9 12 10 10 15 27 21 16 18 19 22
34 13 4 16 21 16 12 6 2 4 7 10 15 14 15 6 4 2 3 5 4 4 2 2 9 5 5 3 8 14 8 5 5 5 5 7 8 4 17 11 17 16 18 19 22
30 4 10 22 21 10 8 2 3 3 7 14 15 18 3 9 7 6 6 4 6 7 6 2 4 13 14 10 8 13 7 2 5 7 9 5 6 2 2 9 14 20 19 19 21
27 2 14 23 17 8 6 3 2 6 10 12 15 8 9 3 2 8 4 5 3 8 2 3 1 5 10 6 11 7 7 1 1 1 8 6 2 2 4 6 6 13 9 15 19
24 2 19 25 11 10 2 3 4 5 11 8 8 6 17 12 10 10 4 2 5 2 7 4 2 5 7 5 2 6 8 5 2 6 6 4 3 4 3 5 4 6 13 11 12
17 3 18 19 8 9 3 4 6 10 14 6 11 10 10 15 16 13 5 6 3 10 3 4 4 4 6 9 10 5 6 2 1 2 1 5 4 2 3 6 5 3 2 8 13
12 2 18 18 7 4 5 10 8 10 17 5 7 6 9 17 11 9 4 9 25 14 3 3 4 4 12 3 12 10 6 7 2 2 2 2 5 5 4 5 7 9 10 5 7
12 6 11 21 5 6 9 6 5 10 10 9 6 9 12 10 8 11 12 11 18 16 10 4 3 2 6 6 3 9 5 3 4 1 1 2 4 6 4 5 6 8 10 11 8
8 5 7 11 7 5 7 4 10 14 7 14 7 7 15 13 10 11 11 7 21 20 14 3 3 3 1 3 4 7 9 8 3 2 4 1 1 6 2 6 7 8 8 11 14
11 3 4 5 7 10 4 5 9 9 9 10 4 13 14 8 18 1 11 17 19 10 10 4 5 8 5 4 4 8 10 10 6 2 4 2 6 2 4 6 8 9 4 4 11
6 6 5 5 7 9 4 4 8 10 9 9 6 18 17 11 15 21 15 12 9 8 11 10 2 3 6 7 7 10 12 11 5 3 6 2 4 4 4 5 9 11 9 7 9
11 7 2 3 4 5 4 7 10 16 10 11 16 18 16 15 18 30 30 26 20 12 8 6 4 5 2 5 6 7 12 11 8 8 6 5 1 9 4 6 6 8 13 14 16
Wind_Direction
1 357 356 355 355 352 348 345 341 338 327 325 324 321 317 319 324 313 300 288 272 271 262 222 213 206 206 213 197 197 228 224 222 222 226 222 212 208 231 233 226 201 233 216 187
2 357 356 355 356 358 359 2 1 352 344 337 327 323 320 329 334 348 70 78 33 9 303 236 219 207 192 215 205 203 225 224 231 230 232 243 219 205 204 203 210 209 227 223 189
1 356 353 354 358 2 2 2 357 353 344 340 331 324 329 336 360 122 78 32 11 1 339 253 204 192 216 200 209 220 234 230 237 235 227 233 221 222 218 217 214 213 193 202 189
1 356 354 354 358 359 357 357 353 350 343 341 332 326 335 349 16 132 252 295 304 288 328 247 201 191 224 221 211 250 236 244 227 235 228 222 285 242 225 213 157 129 141 190 191
358 356 352 353 352 351 350 350 348 344 338 341 331 327 342 343 65 287 292 280 266 275 300 209 191 193 212 221 226 239 244 233 239 241 276 286 243 257 262 241 244 259 268 207 201
357 354 350 352 347 344 344 341 341 341 334 339 327 326 322 283 108 352 325 313 288 259 255 220 208 197 219 227 217 222 234 250 233 240 257 269 266 255 245 250 255 259 246 217 200
356 353 351 351 347 341 343 340 335 335 331 333 324 329 290 207 345 320 307 310 296 252 219 232 201 187 205 257 239 249 264 241 236 228 238 233 252 234 233 253 265 245 256 196 192
356 353 351 351 349 346 342 337 333 331 326 327 323 312 265 227 304 322 306 302 307 254 237 218 207 211 205 260 241 225 238 237 222 225 226 203 234 230 232 252 254 254 242 198 188
354 354 350 352 350 347 340 336 333 327 319 324 310 319 276 311 319 331 322 305 298 294 240 215 184 212 191 220 219 201 219 217 228 217 220 215 241 237 243 235 244 240 226 195 182
354 353 348 349 349 342 338 335 332 325 313 328 307 306 248 328 329 316 315 297 261 136 144 189 180 210 215 200 212 205 218 217 220 202 213 222 229 264 296 222 232 223 215 197 186
354 351 345 345 344 337 339 336 344 329 315 261 279 269 288 314 330 320 310 288 234 199 203 197 212 218 208 212 231 210 211 228 222 217 210 220 218 233 263 230 233 214 203 195 188
353 348 343 339 342 338 338 339 330 302 303 297 277 269 287 288 313 299 278 226 229 247 191 185 228 245 237 210 229 241 249 206 224 217 211 211 227 227 243 251 236 207 187 185 181
351 344 336 334 337 341 336 333 334 314 298 292 281 278 283 255 272 279 222 214 261 266 215 234 209 175 252 206 220 233 254 212 285 191 203 194 216 219 234 241 257 220 211 194 188
351 341 334 330 341 333 332 330 335 309 310 296 278 271 294 292 263 222 236 234 238 271 253 243 235 263 250 218 215 233 213 248 265 187 194 201 192 214 210 214 228 215 200 196 191
350 340 337 351 341 337 325 332 334 332 332 327 293 295 303 271 306 205 222 210 254 250 228 312 177 190 231 210 205 235 210 230 283 254 207 194 249 167 205 215 216 208 195 196 195
350 341 321 346 347 338 334 333 331 250 343 338 315 314 330 261 248 290 201 216 261 259 221 249 222 176 235 216 219 141 240 256 222 223 204 181 222 182 194 209 207 203 189 191 194
354 351 334 356 343 336 334 333 311 43 323 322 323 328 324 307 287 261 258 222 236 300 257 187 207 193 204 233 223 216 185 148 159 187 189 157 205 323 204 207 211 205 188 188 189
356 37 26 2 347 341 347 294 7 356 316 318 318 315 292 26 318 314 284 281 214 229 284 265 186 179 196 198 187 193 193 172 160 181 160 139 211 127 254 207 215 211 205 185 186
357 149 9 358 356 6 347 3 328 329 324 330 324 329 342 360 227 321 251 290 295 198 242 303 93 186 194 184 177 171 206 318 70 39 165 172 202 160 83 136 177 188 196 189 184
357 112 12 354 354 347 35 312 304 308 318 319 335 337 322 344 325 326 275 108 343 329 271 312 299 185 185 183 219 221 150 197 202 165 172 149 174 105 59 70 80 171 200 205 188
359 89 2 359 6 29 59 311 306 327 342 317 315 309 322 335 326 323 278 55 120 335 228 294 286 132 178 208 187 168 190 80 51 326 143 141 141 69 357 339 335 329 225 213 205
4 49 351 9 42 16 355 326 307 335 343 304 302 302 327 332 322 316 331 354 322 334 341 233 300 195 204 252 220 203 190 207 260 146 54 21 121 110 52 14 344 326 309 261 206
354 337 356 15 48 359 336 323 308 350 327 340 303 332 350 327 326 322 332 333 327 346 356 353 247 162 143 130 162 209 185 153 114 58 52 15 117 165 54 30 13 332 298 272 215
4 1 351 47 77 9 346 346 339 335 312 340 292 357 347 324 323 305 335 336 342 334 350 208 284 330 345 132 170 188 190 185 189 162 146 236 226 206 356 28 10 346 301 248 217
20 48 6 335 358 345 331 310 332 349 336 321 294 356 344 303 318 144 342 338 334 0 1 34 5 340 316 256 252 204 182 175 201 134 195 188 231 79 36 30 11 6 13 176 191
30 358 333 294 310 328 345 343 323 331 323 308 300 324 316 285 285 299 312 325 285 326 347 346 3 309 310 340 217 213 193 189 188 184 254 239 246 134 94 76 41 35 52 107 140
11 348 315 302 337 321 350 331 310 321 298 274 306 310 299 295 304 290 281 268 256 280 304 304 329 343 316 17 141 221 215 204 195 208 217 218 270 163 109 78 44 62 75 70 87